Location: Arlington
(40.6323°N, 74.1651°W)
Time: 03:32:30
(UTC+00:00)

H-2A R/B - Pass Details

Date: 22 November 2019
Orbit: 500 x 543 km, 97.3° (Epoch: 11 December)

Event Time Altitude Azimuth Distance (km) Brightness Sun altitude
Rises 21:59:27 0° 150° (SSE) 2,655 6.2 -5.2°
Reaches altitude 10° 22:01:39 10° 143° (SE) 1,763 5.3 -5.6°
Maximum altitude 22:05:12 39° 73° (ENE) 790 3.2 -6.2°
Drops below altitude 10° 22:08:45 10° 4° (N) 1,753 5.1 -6.9°
Sets 22:10:55 0° 357° (N) 2,637 6.1 -7.2°
